Suomi 100
1 43804U 18099AY  24356.15944860  .00013377  00000-0  76051-3 0  9996
2 43804  97.5013  50.9200 0014331  25.1278 335.0647 15.12919188330884
ISAT
1 43879U 18111D   24356.56787120  .00023866  00000-0  11069-2 0  9993
2 43879  97.6060 262.3479 0013563  72.9765 287.2955 15.19971963327784
UWE-4
1 43880U 18111E   24356.53533967  .00019366  00000-0  95559-3 0  9997
2 43880  97.5994 261.7368 0016796  82.1653 278.1486 15.17821415327761
Sparrow
1 43881U 18111F   24356.26562601  .00021526  00000-0  97772-3 0  9995
2 43881  97.6177 264.3666 0010756 104.8790 255.3637 15.20744764327816
Prox-1
1 44339U 19036A   24356.59291038  .00018257  00000-0  26793-2 0  9991
2 44339  23.9982  93.5601 0006769 304.9050  55.0809 14.73958253292851
SONATE
1 44400U 19038Q   24356.43805685  .00053310  00000-0  90662-3 0  9990
2 44400  97.7128   1.0261 0012898 141.8773 218.3393 15.51171122302928
Taurus 1
1 44530U 19059C   24356.59069517  .00013300  00000-0  27000-2 0  9990
2 44530  98.5894 122.6882 0010810 199.0621 161.0175 14.61253834279071
Duchifat 3
1 44854U 19089C   24356.30684750  .00034647  00000-0  11930-2 0  9995
2 44854  36.9513 343.3347 0012703 227.8892 132.0780 15.29086016276792
TO-108
1 44881U 19093C   24356.52111480  .00001967  00000-0  23726-3 0  9995
2 44881  97.8124  69.6554 0015329  71.5117 288.7762 14.84860123270832
FloripaSat 1
1 44885U 19093G   24356.48712306  .00008792  00000-0  81025-3 0  9997
2 44885  97.8286  78.0953 0011924  57.0143 303.2222 14.94876683271303
RS-44
1 44909U 19096E   24356.43308114  .00000025  00000-0  60133-4 0  9999
2 44909  82.5217 340.3478 0217019 333.7095  25.3117 12.79737085232928
UPMSat 2
1 46276U 20061E   24356.27139869  .00038406  00000-0  74944-3 0  9991
2 46276  97.2715  61.6291 0001574 135.5926 224.5450 15.47401999238960
AmicalSat
1 46287U 20061R   24356.14086069  .00388360  00000-0  17168-2 0  9993
2 46287  97.3148  67.3085 0003664 277.9698  82.1156 15.83456685238565
SALSAT
1 46495U 20068K   24356.52501554  .00011958  00000-0  58401-3 0  9996
2 46495  97.8417 321.4636 0014111  37.4283 322.7929 15.18340658232682
CubeSX-Sirius-HSE
1 47951U 21022V   24356.56619443  .00060348  00000-0  13233-2 0  9996
2 47951  97.4392 256.2685 0008760 169.2526 190.8910 15.43832463207284
CubeSX-HSE
1 47952U 21022W   24356.55878281  .00058254  00000-0  12638-2 0  9994
2 47952  97.4387 256.4131 0008822 168.0855 192.0603 15.44159018207291
KSU-Cubesat
1 47954U 21022Y   24356.22979994  .00096991  00000-0  14709-2 0  9994
2 47954  97.4390 258.9334 0007819 147.2525 212.9215 15.54250666207144
GRBAlpha
1 47959U 21022AD  24356.58204391  .00057846  00000-0  12564-2 0  9993
2 47959  97.4388 256.6044 0008754 167.3767 192.7702 15.44127113206121
Orbicraft-Zorkiy
1 47960U 21022AE  24356.55054176  .00081491  00000-0  14245-2 0  9997
2 47960  97.4413 258.9385 0007763 154.9048 205.2582 15.50336320206932
TUBIN
1 48900U 21059X   24356.58621618  .00037856  00000-0  85757-3 0  9999
2 48900  97.6624 148.5622 0005406 139.4021 220.7630 15.42999459193684
LEDSAT
1 49069U 21073D   24356.14540509  .00039056  00000-0  10134-2 0  9993
2 49069  97.4144  67.4234 0013947 341.1779  18.8948 15.38790249185056
CUTE
1 49263U 21088D   24356.18589404  .00044797  00000-0  13028-2 0  9999
2 49263  97.4737  62.4987 0011401 138.6999 221.5109 15.35245224178167
TeikyoSat 4
1 49396U 21102B   24356.50716895  .00003389  00000-0  23448-3 0  9995
2 49396  97.4363  34.9768 0012920   5.1120 355.0237 15.06277803170939
Z-Sat
1 49399U 21102E   24356.54417072  .00007488  00000-0  44021-3 0  9991
2 49399  97.4064  37.1898 0018416 337.2358  22.8054 15.11815369171261
KOSEN 1
1 49402U 21102H   24356.39160174  .00009996  00000-0  51714-3 0  9990
2 49402  97.3985  39.3254 0015986 317.4219  42.5774 15.16326535171469
HO-113
1 50466U 21131B   24356.52754634  .00001309  00000-0  42656-3 0  9994
2 50466  98.5202  80.7296 0003143 289.6122  70.4727 14.40365701156967
IRIS-A
1 51044U 22002BN  24356.58905574  .00060941  00000-0  11087-2 0  9992
2 51044  97.3582  64.1861 0004827  84.6255 275.5546 15.49302552163243
Foresail-1
1 52766U 22057AL  24356.42137222  .00053116  00000-0  96344-3 0  9990
2 52766  97.5970 128.6557 0007033 182.8629 177.2582 15.49409397143256
SNUGLITE 2
1 52899U 22065F   24356.37260860  .00002409  00000-0  48688-3 0  9992
2 52899  98.1428 134.3807 0006562 289.3872  70.6620 14.62261218131606
IO-117
1 53106U 22080B   24353.24910383 -.00000003  00000-0  00000+0 0  9997
2 53106  70.1357 128.5751 0008289  65.4193 294.7329  6.42557685 57099
FO-118
1 54684U 22167C   24356.58029655  .00128882  00000-0  16243-2 0  9992
2 54684  97.6138 149.2751 0006285 213.1807 146.9055 15.59155929113168
SSS-2B
1 56184U 23054G   24356.56017461  .02781622  23787-5  16363-2 0  9999
2 56184  97.3203 260.9506 0006737 123.1729 237.0206 16.18641900 95332
SO-120
1 56992U 23084BU  24356.57583609  .00178733  00000-0  19789-2 0  9996
2 56992  97.5351 121.6791 0003352  46.9302 313.2236 15.62399964 85037
MRC-100
1 56993U 23084BV  24355.86650468  .00558549  00000-0  22952-2 0  9999
2 56993  97.5284 123.1200 0005363 318.0241  42.0617 15.84588793 85072
UmKA 1 (RS40S)
1 57172U 23091G   24356.52739696  .00008882  00000-0  52115-3 0  9997
2 57172  97.5861  46.9376 0015070 195.3783 164.6991 15.11887260 81750
CubeBel-2 (EU11S)
1 57175U 23091K   24356.57446143  .00013478  00000-0  74132-3 0  9997
2 57175  97.5859  47.3240 0013028 206.4443 153.6125 15.14118545 81789
VERONIKA
1 58261U 23174F   24356.56227270  .00049703  00000-0  13477-2 0  9997
2 58261  97.4389  71.2848 0008283 298.7626  61.2786 15.37439170 62328
KAFASAT
1 58317U 23174BP  24356.51426533  .00094978  00000-0  17721-2 0  9997
2 58317  97.4314  73.3319 0007376 267.6861  92.3545 15.48423148 62476
ENSO
1 58470U 23185J   24356.57671095  .00035659  00000-0  99620-3 0  9990
2 58470  97.4012  62.6271 0009147 338.9325  21.1541 15.36579280 58774
EIRSAT-1
1 58472U 23185L   24356.58274914  .00045930  00000-0  11777-2 0  9991
2 58472  97.4004  63.0393 0008472 337.4289  22.6582 15.39180820 58806
SONATE-2
1 59112U 24043Q   24355.84465431  .00018983  00000-0  71512-3 0  9993
2 59112  97.4956 118.9386 0012709   3.7727 356.3605 15.27060634 44203
MO-122
1 60209U 24125G   24356.54350602  .00022437  00000-0  83590-3 0  9992
2 60209  97.2972 204.8722 0023984  27.5451 332.7053 15.27190651 25928
GRBBeta
1 60237U 24128C   24356.30717047  .00007980  00000-0  64847-3 0  9990
2 60237  61.9943 312.0893 0032341  15.8913 344.3184 14.99910316 24633
Curium One
1 60242U 24128H   24356.19794899  .00012637  00000-0  99800-3 0  9995
2 60242  61.9845 312.4782 0032496   8.5396 351.6240 15.00613426 24624
ROBUSTA-3A
1 60243U 24128J   24356.29083689  .00013054  00000-0  10392-2 0  9997
2 60243  61.9913 312.4985 0030542   6.2154 353.9309 15.00333270 24631
CatSat
1 60246U 24125J   24356.54908239  .00016838  00000-0  65675-3 0  9990
2 60246  97.2771 205.5750 0047240 340.0883  19.8510 15.24944167 24025
CySat-1
1 61501U 98067WZ  24356.30587868  .00480979  00000-0  20159-2 0  9994
2 61501  51.6268 100.7354 0014487 329.3967  30.6190 15.83611782 11605
AO-123
1 61781U 24199AY  24356.60449581  .00011796  00000-0  48598-3 0  9996
2 61781  97.3786 220.6639 0019252  78.6257 281.7142 15.24078057 50950
